1513465200.48,39605,7.0,72340.8,-14.01,-46.01,-46.07,0,*6B
1513465201.72,39606,7.0,72342.8,-14.01,-46.01,-45.87,0,*63
1513465202.97,39607,7.0,72340.5,-14.01,-46.01,-46.01,0,*6F
1513465204.21,39608,7.0,72344.3,-14.03,-46.07,-45.95,0,*6A
1513465205.45,39609,7.0,72344.0,-14.03,-45.95,-46.07,0,*6B
1513465206.7,39610,7.0,72340.8,-14.03,-46.15,-46.21,0,*6C
1513465207.95,39611,7.0,72340.8,-14.01,-46.01,-46.01,0,*68
1513465209.22,39612,7.0,72336.5,-14.03,-46.07,-46.07,0,*69
1513465210.49,39613,7.0,72340.5,-14.03,-46.07,-46.07,0,*68
1513465211.73,39614,7.0,72340.0,-14.03,-46.15,-45.95,0,*64
1513465212.97,39615,7.0,72340.8,-14.03,-45.95,-46.07,0,*66
1513465214.18,39616,7.0,72340.3,-14.03,-45.87,-45.95,0,*6E
1513465215.39,39617,7.0,72342.5,-14.03,-45.95,-45.95,0,*6C
1513465216.63,39618,7.0,72338.8,-14.03,-45.53,-45.73,0,*61
1513465217.9,39619,7.0,72342.5,-14.01,-45.47,-45.61,0,*64
1513465219.16,39620,7.0,72340.3,-14.01,-45.67,-45.81,0,*62
1513465220.4,39621,7.0,72340.8,-14.03,-45.73,-45.87,0,*62
1513465221.66,39622,7.0,72336.8,-14.01,-45.67,-45.81,0,*60
1513465222.95,39623,7.0,72332.3,-14.01,-45.81,-45.81,0,*69
1513465224.23,39624,7.0,72338.8,-14.01,-46.01,-46.07,0,*68
1513465225.46,39625,7.0,72338.3,-14.01,-45.87,-45.87,0,*6F
1513465226.73,39626,7.0,72334.3,-14.01,-45.67,-45.73,0,*69
1513465228.02,39627,7.0,72336.5,-14.01,-45.81,-45.81,0,*6D
1513465229.25,39628,7.0,72340.0,-14.01,-45.87,-45.87,0,*62
1513465230.47,39629,7.0,72342.0,-13.99,-45.87,-45.87,0,*65
1513465231.72,39630,7.0,72338.8,-14.01,-45.87,-46.01,0,*66
1513465232.97,39631,7.0,72342.3,-13.99,-46.07,-46.01,0,*6A
1513465234.23,39632,7.0,72336.3,-14.01,-45.81,-45.87,0,*6F
1513465235.53,39633,7.0,72336.8,-14.01,-46.07,-46.07,0,*68
1513465236.83,39634,7.0,72342.8,-14.01,-46.15,-46.15,0,*6F
1513465238.11,39635,7.0,72338.3,-14.01,-46.35,-46.15,0,*6C
1513465239.41,39636,7.0,72336.0,-14.01,-46.27,-46.27,0,*6D
1513465240.66,39637,7.0,72338.0,-13.99,-46.15,-46.35,0,*68
1513465241.96,39638,7.0,72334.8,-14.01,-46.15,-46.15,0,*63
1513465243.18,39639,7.0,72336.5,-14.03,-46.35,-46.35,0,*60
1513465244.47,39640,7.0,72338.5,-14.01,-46.49,-46.69,0,*6E
1513465245.71,39641,7.0,72338.8,-14.03,-46.41,-46.55,0,*6A
1513465246.94,39642,7.0,72342.3,-14.03,-46.55,-46.61,0,*6B
1513465248.18,39643,7.0,72342.0,-14.03,-46.41,-46.55,0,*68
1513465249.44,39644,7.0,72338.5,-14.03,-46.41,-46.41,0,*6A
1513465250.74,39645,7.0,72340.3,-14.01,-46.49,-46.49,0,*69
1513465251.97,39646,7.0,72340.3,-14.03,-46.55,-46.61,0,*6F
1513465253.19,39647,7.0,72342.8,-14.03,-46.55,-46.75,0,*6B
1513465254.42,39648,7.0,72338.8,-14.03,-46.55,-46.61,0,*61
1513465255.69,39649,7.0,72346.5,-14.05,-46.41,-46.55,0,*64
1513465256.95,39650,7.0,72344.0,-14.05,-46.41,-46.55,0,*6C
1513465258.26,39651,7.0,72346.0,-14.05,-46.15,-46.15,0,*68
1513465259.56,39652,7.0,72342.0,-14.05,-46.15,-46.15,0,*6B
1513465260.86,39653,7.0,72342.8,-14.05,-46.15,-46.07,0,*69
1513465262.13,39654,7.0,72346.0,-14.05,-46.07,-45.95,0,*65
1513465263.38,39655,7.0,72342.8,-14.05,-45.95,-45.95,0,*6C
1513465264.62,39656,7.0,72342.0,-14.05,-45.95,-45.87,0,*6C
1513465265.86,39657,7.0,72344.8,-14.05,-45.95,-45.87,0,*6D
1513465267.1,39658,7.0,72344.8,-14.05,-45.95,-45.95,0,*61
1513465268.4,39659,7.0,72342.5,-14.05,-46.07,-46.07,0,*60
1513465269.7,39660,7.0,72340.8,-14.05,-46.15,-46.15,0,*6A
1513465270.97,39661,7.0,72342.0,-14.05,-46.07,-45.95,0,*63
1513465272.21,39662,7.0,72346.3,-14.05,-45.95,-45.95,0,*68
1513465273.48,39663,7.0,72340.3,-14.05,-45.87,-45.73,0,*62
1513465274.75,39664,7.0,72342.3,-14.05,-45.95,-46.07,0,*66
1513465276.05,39665,7.0,72342.0,-14.05,-46.15,-46.07,0,*6C
1513465277.36,39666,7.0,72342.5,-14.05,-46.15,-46.15,0,*6C
1513465278.6,39667,7.0,72342.3,-14.05,-45.95,-45.87,0,*6E
1513465279.87,39668,7.0,72342.3,-14.05,-46.15,-45.95,0,*69
1513465281.14,39669,7.0,72342.8,-14.05,-46.15,-46.21,0,*64
1513465282.45,39670,7.0,72340.3,-14.05,-46.15,-46.15,0,*6B
1513465283.7,39671,7.0,72340.0,-14.05,-46.35,-46.35,0,*6A
1513465284.99,39672,7.0,72342.5,-14.05,-46.41,-46.41,0,*69
1513465286.23,39673,7.0,72340.0,-14.05,-46.21,-46.21,0,*68
1513465287.5,39674,7.0,72344.5,-14.05,-46.21,-46.41,0,*69
1513465288.74,39675,7.0,72342.3,-14.05,-46.21,-46.21,0,*6E
1513465290.05,39676,7.0,72340.8,-14.05,-46.15,-46.15,0,*6D
1513465291.35,39677,7.0,72344.8,-14.05,-46.15,-46.07,0,*6F
1513465292.65,39678,7.0,72346.0,-14.05,-46.07,-46.07,0,*63
1513465293.95,39679,7.0,72346.5,-14.05,-46.07,-46.07,0,*62
1513465295.25,39680,7.0,72342.8,-14.05,-46.07,-46.07,0,*64
1513465296.52,39681,7.0,72346.8,-14.05,-45.95,-46.07,0,*6D
1513465297.82,39682,7.0,72346.3,-14.05,-46.15,-46.15,0,*66
1513465299.1,39683,7.0,72344.5,-14.05,-46.15,-45.95,0,*6C
1513465300.4,39684,7.0,72342.3,-14.05,-46.15,-46.15,0,*60
1513465301.67,39685,7.0,72340.5,-14.05,-46.07,-45.95,0,*69
1513465302.91,39686,7.0,72340.0,-14.05,-46.21,-46.21,0,*62
1513465304.16,39687,7.0,72340.0,-14.05,-46.35,-46.35,0,*63
1513465305.41,39688,7.0,72346.3,-14.05,-46.21,-46.35,0,*69
1513465306.68,39689,7.0,72342.8,-14.05,-46.35,-46.41,0,*6E
1513465307.98,39690,7.0,72346.8,-14.05,-46.15,-46.15,0,*65
1513465309.26,39691,7.0,72346.3,-14.09,-46.15,-46.01,0,*6D
1513465310.5,39692,7.0,72344.5,-14.05,-45.95,-45.95,0,*67
1513465311.75,39693,7.0,72344.8,-14.05,-45.95,-45.95,0,*66
1513465313.02,39694,7.0,72342.0,-14.05,-46.15,-46.21,0,*66
1513465314.29,39695,7.0,72344.3,-14.05,-46.35,-46.41,0,*63
1513465315.56,39696,7.0,72346.8,-14.05,-45.95,-46.07,0,*6B
1513465316.84,39697,7.0,72346.5,-14.05,-46.15,-45.95,0,*69
1513465318.08,39698,7.0,72340.3,-14.05,-45.67,-45.67,0,*6D
1513465319.32,39699,7.0,72342.3,-14.05,-45.53,-45.67,0,*6B
1513465320.56,39700,7.0,72342.3,-14.05,-45.53,-45.67,0,*6A
1513465321.81,39701,7.0,72340.8,-14.05,-45.53,-45.53,0,*6C
1513465323.08,39702,7.0,72342.0,-14.05,-45.47,-45.53,0,*6A
1513465324.34,39703,7.0,72346.8,-14.05,-45.73,-45.87,0,*65
1513465325.61,39704,7.0,72346.3,-14.05,-45.87,-45.73,0,*62
1513465326.85,39705,7.0,72342.8,-14.05,-45.87,-45.95,0,*6B
1513465328.11,39706,7.0,72342.8,-14.05,-45.73,-45.95,0,*63
1513465329.38,39707,7.0,72344.5,-14.05,-45.95,-46.07,0,*62
1513465330.68,39708,7.0,72342.0,-14.05,-46.07,-46.07,0,*65
1513465331.92,39709,7.0,72342.8,-14.05,-45.95,-45.87,0,*67
1513465333.16,39710,7.0,72342.3,-14.05,-45.95,-45.95,0,*6C
1513465334.4,39711,7.0,72344.8,-14.05,-45.87,-45.95,0,*6E
1513465335.66,39712,7.0,72340.0,-14.05,-45.67,-45.73,0,*6B
1513465336.9,39713,7.0,72340.5,-14.05,-45.87,-45.87,0,*6F
1513465338.18,39714,7.0,72342.8,-14.03,-46.15,-46.15,0,*6E
1513465339.48,39715,7.0,72342.0,-14.05,-46.15,-46.07,0,*6A
1513465340.78,39716,7.0,72340.5,-14.05,-46.07,-46.15,0,*69
1513465342.08,39717,7.0,72344.0,-14.05,-46.07,-46.07,0,*6B
1513465343.32,39718,7.0,72342.0,-14.05,-46.21,-46.21,0,*64
1513465344.57,39719,7.0,72340.5,-14.05,-46.35,-46.21,0,*60
1513465345.86,39720,7.0,72340.3,-14.05,-46.41,-46.61,0,*6D
1513465347.12,39721,7.0,72342.5,-14.05,-46.41,-46.55,0,*6B
1513465348.39,39722,7.0,72342.0,-14.05,-46.41,-46.55,0,*68
1513465349.68,39723,7.0,72344.5,-14.05,-46.41,-46.41,0,*6C
1513465350.95,39724,7.0,72342.8,-14.05,-46.35,-46.41,0,*68
1513465352.22,39725,7.0,72346.3,-14.05,-46.35,-46.41,0,*69
1513465353.49,39726,7.0,72342.0,-14.05,-46.41,-46.55,0,*6C
1513465354.75,39727,7.0,72346.5,-14.11,-46.61,-46.61,0,*6D
1513465355.98,39728,7.0,72344.5,-14.11,-46.83,-46.83,0,*62
1513465357.25,39729,7.0,72348.0,-14.09,-46.61,-46.83,0,*66
1513465358.5,39730,7.0,72344.0,-14.11,-46.69,-46.83,0,*6F
1513465359.77,39731,7.0,72346.0,-14.09,-46.69,-46.83,0,*67
1513465361.04,39732,7.0,72348.0,-14.11,-46.49,-46.49,0,*69
1513465362.31,39733,7.0,72344.5,-14.11,-46.61,-46.69,0,*60
1513465363.58,39734,7.0,72346.8,-14.11,-46.49,-46.49,0,*6F
1513465364.85,39735,7.0,72346.0,-14.11,-46.27,-46.41,0,*6E
1513465366.12,39736,7.0,72348.8,-14.11,-46.41,-46.49,0,*65
1513465367.34,39737,7.0,72348.8,-14.11,-46.01,-46.01,0,*6C
1513465368.57,39738,7.0,72348.5,-14.11,-45.95,-46.01,0,*6D
1513465369.78,39739,7.0,72344.5,-14.11,-45.95,-45.95,0,*62
1513465371.04,39740,7.0,72350.5,-14.09,-45.73,-45.95,0,*6D
1513465372.29,39741,7.0,72346.0,-14.11,-45.53,-45.81,0,*62
1513465373.5,39742,7.0,72348.3,-14.11,-45.41,-45.61,0,*6C
1513465374.74,39743,7.0,72348.3,-14.09,-45.33,-45.41,0,*63
1513465375.97,39744,7.0,72350.5,-14.11,-45.73,-45.61,0,*6B
1513465377.23,39745,7.0,72352.0,-14.11,-45.73,-45.73,0,*69
1513465378.45,39746,7.0,72354.8,-14.11,-45.53,-45.61,0,*6B
1513465379.67,39747,7.0,72348.8,-14.11,-45.41,-45.61,0,*69
1513465380.93,39748,7.0,72348.5,-14.09,-45.61,-45.73,0,*6E
1513465382.2,39749,7.0,72348.3,-14.09,-45.81,-45.95,0,*69
1513465383.43,39750,7.0,72346.3,-14.11,-45.81,-45.95,0,*68
1513465384.69,39751,7.0,72346.0,-14.09,-45.81,-45.95,0,*60
1513465385.93,39752,7.0,72350.5,-14.09,-45.95,-45.95,0,*66
1513465387.19,39753,7.0,72350.0,-14.09,-45.81,-45.95,0,*62
1513465388.48,39754,7.0,72346.0,-14.09,-45.81,-45.81,0,*60
1513465389.75,39755,7.0,72344.0,-14.09,-45.61,-45.73,0,*62
1513465390.99,39756,7.0,72342.8,-14.09,-45.41,-45.41,0,*62
1513465392.2,39757,7.0,72346.8,-14.11,-45.33,-45.33,0,*6A
1513465393.43,39758,7.0,72344.3,-14.05,-45.33,-45.33,0,*60
1513465394.71,39759,7.0,72344.0,-14.05,-45.27,-45.33,0,*64
1513465396.01,39760,7.0,72342.3,-14.05,-45.27,-45.47,0,*6D
1513465397.28,39761,7.0,72346.0,-14.05,-45.53,-45.47,0,*6F
1513465398.54,39762,7.0,72344.8,-14.05,-45.33,-45.47,0,*6A
1513465399.84,39763,7.0,72346.5,-14.05,-45.27,-45.47,0,*6E
1513465401.1,39764,7.0,72344.3,-14.05,-45.67,-45.73,0,*6A
1513465402.37,39765,7.0,72342.0,-14.05,-45.47,-45.33,0,*6D
1513465403.61,39766,7.0,72342.0,-14.05,-45.33,-45.53,0,*6B
1513465404.9,39767,7.0,72342.8,-14.05,-45.47,-45.47,0,*6C
1513465406.15,39768,7.0,72340.5,-14.05,-45.53,-45.53,0,*63
1513465407.43,39769,7.0,72344.5,-14.05,-45.73,-45.73,0,*62
1513465408.66,39770,7.0,72344.8,-14.03,-45.73,-45.87,0,*67
1513465409.9,39771,7.0,72342.3,-14.03,-45.67,-45.73,0,*68
1513465411.11,39772,7.0,72346.0,-14.03,-45.53,-45.67,0,*69
1513465412.38,39773,7.0,72344.0,-14.05,-45.47,-45.53,0,*6C
1513465413.62,39774,7.0,72342.3,-14.03,-45.47,-45.53,0,*6D
1513465414.88,39775,7.0,72342.3,-14.01,-45.41,-45.47,0,*6D
1513465416.12,39776,7.0,72342.0,-14.01,-45.67,-45.67,0,*68
1513465417.38,39777,7.0,72342.8,-14.01,-45.87,-46.07,0,*62
1513465418.65,39778,7.0,72342.8,-14.01,-45.81,-45.87,0,*60
1513465419.85,39779,7.0,72346.3,-14.03,-45.87,-45.95,0,*66
1513465421.13,39780,7.0,72344.8,-14.03,-46.15,-46.07,0,*60
1513465422.4,39781,7.0,72340.0,-14.03,-46.15,-46.07,0,*61
1513465423.61,39782,7.0,72346.3,-14.03,-45.87,-45.87,0,*61
1513465424.9,39783,7.0,72346.5,-14.01,-45.81,-45.81,0,*62
1513465426.13,39784,7.0,72346.0,-14.03,-45.73,-45.87,0,*6C
1513465427.34,39785,7.0,72348.0,-14.03,-45.95,-45.95,0,*66
1513465428.64,39786,7.0,72344.8,-14.01,-46.27,-46.15,0,*66
1513465429.89,39787,7.0,72348.8,-14.03,-46.35,-46.27,0,*67
1513465431.1,39788,7.0,72344.5,-14.03,-46.35,-46.35,0,*6B
1513465432.38,39789,7.0,72346.0,-14.01,-46.49,-46.55,0,*65
1513465433.65,39790,7.0,72346.3,-14.01,-46.15,-46.35,0,*62
1513465434.92,39791,7.0,72348.5,-14.03,-46.07,-46.07,0,*63
1513465436.19,39792,7.0,72350.3,-14.03,-46.15,-46.15,0,*60
1513465437.44,39793,7.0,72350.3,-14.01,-46.01,-45.87,0,*6E
1513465438.65,39794,7.0,72348.5,-14.03,-45.95,-45.95,0,*66
1513465439.86,39795,7.0,72348.8,-14.03,-45.95,-45.95,0,*67
1513465441.07,39796,7.0,72346.0,-14.03,-45.87,-45.87,0,*64
1513465442.28,39797,7.0,72348.0,-14.03,-45.95,-45.95,0,*65
1513465443.52,39798,7.0,72344.3,-14.03,-45.95,-46.07,0,*62
1513465444.73,39799,7.0,72348.5,-14.03,-45.87,-45.95,0,*68
1513465445.94,39800,7.0,72344.5,-14.03,-45.95,-45.95,0,*64
1513465447.15,39801,7.0,72344.5,-14.03,-46.21,-46.21,0,*65
1513465448.4,39802,7.0,72350.5,-14.03,-46.35,-46.41,0,*65
1513465449.63,39803,7.0,72342.0,-14.03,-46.55,-46.61,0,*60
1513465450.87,39804,7.0,72346.8,-14.03,-46.55,-46.61,0,*67
1513465452.11,39805,7.0,72346.5,-14.05,-46.55,-46.55,0,*67
1513465453.38,39806,7.0,72348.3,-14.05,-46.41,-46.55,0,*61
1513465454.66,39807,7.0,72348.8,-14.05,-46.41,-46.61,0,*67
1513465455.93,39808,7.0,72344.0,-14.05,-46.41,-46.55,0,*6F
1513465457.22,39809,7.0,72344.0,-14.05,-46.41,-46.41,0,*6B
1513465458.46,39810,7.0,72346.8,-14.05,-46.21,-46.21,0,*63
1513465459.71,39811,7.0,72346.3,-14.05,-46.35,-46.21,0,*67
1513465461.01,39812,7.0,72348.0,-14.09,-46.49,-46.49,0,*6D
1513465462.29,39813,7.0,72346.8,-14.05,-46.21,-46.15,0,*67
1513465463.59,39814,7.0,72348.0,-14.05,-46.15,-46.15,0,*67
1513465464.83,39815,7.0,72350.5,-14.05,-46.21,-46.21,0,*66
1513465466.08,39816,7.0,72346.8,-14.05,-46.21,-46.21,0,*65
1513465467.38,39817,7.0,72348.0,-14.05,-46.07,-46.07,0,*64
1513465468.65,39818,7.0,72350.5,-14.05,-46.07,-45.95,0,*63
1513465469.95,39819,7.0,72350.8,-14.05,-46.07,-46.07,0,*6A
1513465471.19,39820,7.0,72346.8,-14.05,-45.95,-45.95,0,*60
1513465472.43,39821,7.0,72348.5,-14.05,-45.87,-45.95,0,*62
1513465473.67,39822,7.0,72346.5,-14.05,-45.95,-45.95,0,*62
1513465474.97,39823,7.0,72346.5,-14.05,-46.07,-46.07,0,*63
1513465476.21,39824,7.0,72344.0,-14.05,-45.87,-45.95,0,*67
1513465477.45,39825,7.0,72346.0,-14.05,-45.95,-45.95,0,*65
1513465478.75,39826,7.0,72346.3,-14.05,-46.07,-46.07,0,*66
1513465480.02,39827,7.0,72346.8,-14.05,-46.15,-45.95,0,*6C
1513465481.32,39828,7.0,72348.0,-14.05,-46.15,-46.07,0,*6B
1513465482.59,39829,7.0,72346.3,-14.05,-45.87,-46.07,0,*62
1513465483.89,39830,7.0,72344.8,-14.05,-46.07,-46.07,0,*61
1513465485.16,39831,7.0,72344.5,-14.05,-46.07,-45.95,0,*68
1513465486.46,39832,7.0,72344.0,-14.05,-46.15,-46.07,0,*60
1513465487.74,39833,7.0,72346.3,-14.05,-46.35,-46.41,0,*61
1513465489.01,39834,7.0,72344.5,-14.05,-46.35,-46.41,0,*66
1513465490.28,39835,7.0,72344.8,-14.05,-46.41,-46.55,0,*61
1513465491.58,39836,7.0,72344.5,-14.05,-46.15,-46.15,0,*67
1513465492.83,39837,7.0,72344.0,-14.05,-46.35,-46.35,0,*66
1513465494.08,39838,7.0,72346.3,-14.05,-46.35,-46.35,0,*69
1513465495.37,39839,7.0,72344.3,-14.09,-46.27,-46.41,0,*64
1513465496.67,39840,7.0,72344.5,-14.09,-46.41,-46.49,0,*62
1513465497.96,39841,7.0,72346.5,-14.09,-46.41,-46.49,0,*63
1513465499.23,39842,7.0,72342.5,-14.09,-46.61,-46.83,0,*64
1513465500.53,39843,7.0,72342.5,-14.09,-46.49,-46.49,0,*69
1513465501.8,39844,7.0,72344.0,-14.11,-46.61,-46.69,0,*6F
1513465503.07,39845,7.0,72344.8,-14.11,-46.27,-46.27,0,*66
1513465504.35,39846,7.0,72346.8,-14.11,-46.27,-46.27,0,*65
1513465505.61,39847,7.0,72342.3,-14.11,-46.41,-46.41,0,*64
1513465506.87,39848,7.0,72346.0,-14.11,-46.41,-46.41,0,*6B
1513465508.15,39849,7.0,72344.0,-14.11,-46.27,-46.15,0,*6B
1513465509.39,39850,7.0,72340.5,-14.11,-46.15,-46.21,0,*65
1513465510.64,39851,7.0,72344.3,-14.11,-46.21,-46.15,0,*64
1513465511.89,39852,7.0,72342.5,-14.11,-46.21,-46.15,0,*67
1513465513.17,39853,7.0,72342.3,-14.09,-46.15,-46.01,0,*6D
1513465514.44,39854,7.0,72346.3,-14.11,-46.27,-46.15,0,*67
1513465515.71,39855,7.0,72346.0,-14.11,-46.41,-46.27,0,*67
1513465516.95,39856,7.0,72344.5,-14.11,-46.27,-46.21,0,*62
1513465518.2,39857,7.0,72342.5,-14.11,-46.27,-46.21,0,*63
1513465519.46,39858,7.0,72340.3,-14.11,-46.41,-46.41,0,*6A
1513465520.7,39859,7.0,72340.3,-14.11,-46.41,-46.21,0,*6D
1513465521.92,39860,7.0,72346.3,-14.11,-46.21,-46.21,0,*61
1513465523.16,39861,7.0,72342.8,-14.11,-46.21,-46.15,0,*67
1513465524.44,39862,7.0,72346.3,-14.11,-46.15,-46.15,0,*63
1513465525.69,39863,7.0,72342.0,-14.11,-46.21,-46.15,0,*65
1513465526.96,39864,7.0,72336.5,-14.11,-46.15,-46.15,0,*65
1513465528.22,39865,7.0,72340.0,-14.11,-46.15,-46.01,0,*61
1513465529.46,39866,7.0,72342.5,-14.11,-46.21,-46.27,0,*61
1513465530.71,39867,7.0,72342.3,-14.11,-46.27,-46.21,0,*60
1513465531.93,39868,7.0,72342.3,-14.11,-46.01,-46.01,0,*69
1513465533.18,39869,7.0,72340.5,-14.11,-46.01,-46.15,0,*6D
1513465534.44,39870,7.0,72344.8,-14.11,-46.41,-46.41,0,*60
1513465535.74,39871,7.0,72344.3,-14.13,-46.49,-46.49,0,*63
1513465537.02,39872,7.0,72342.5,-14.13,-46.49,-46.55,0,*6D
1513465538.27,39873,7.0,72346.3,-14.15,-46.55,-46.49,0,*6A
1513465539.49,39874,7.0,72342.5,-14.15,-46.55,-46.55,0,*60
1513465540.74,39875,7.0,72346.0,-14.15,-46.35,-46.49,0,*6A
1513465542.0,39876,7.0,72344.5,-14.11,-45.73,-45.81,0,*6B
1513465543.23,39877,7.0,72344.8,-14.15,-45.87,-46.01,0,*6E
1513465544.47,39878,7.0,72340.5,-14.15,-45.67,-45.81,0,*64
1513465545.72,39879,7.0,72346.5,-14.13,-45.87,-46.01,0,*66
1513465546.99,39880,7.0,72344.8,-14.13,-46.21,-46.07,0,*69
1513465548.21,39881,7.0,72342.3,-14.11,-46.21,-46.21,0,*6E
1513465549.51,39882,7.0,72342.0,-14.13,-46.49,-46.49,0,*6F
1513465550.78,39883,7.0,72342.0,-14.13,-46.49,-46.35,0,*65
1513465552.02,39884,7.0,72342.8,-14.13,-45.87,-45.87,0,*69
1513465553.3,39885,7.0,72340.8,-14.13,-46.07,-46.01,0,*6E
1513465554.55,39886,7.0,72340.8,-14.13,-46.01,-46.01,0,*6B
1513465555.82,39887,7.0,72340.0,-14.13,-46.07,-46.21,0,*6E
1513465557.05,39888,7.0,72340.5,-14.11,-46.01,-46.01,0,*67
1513465558.32,39889,7.0,72346.0,-14.13,-46.07,-46.21,0,*60
1513465559.55,39890,7.0,72342.3,-14.11,-46.01,-46.01,0,*6E
1513465560.78,39891,7.0,72342.0,-14.11,-45.73,-45.95,0,*67
1513465562.01,39892,7.0,72340.5,-14.11,-46.01,-46.01,0,*6C
1513465563.28,39893,7.0,72342.3,-14.13,-46.21,-46.07,0,*6B
1513465564.55,39894,7.0,72340.8,-14.15,-46.07,-46.07,0,*6E
1513465565.82,39895,7.0,72342.0,-14.13,-45.81,-45.87,0,*6F
1513465567.08,39896,7.0,72340.8,-14.11,-45.81,-45.81,0,*68
1513465568.29,39897,7.0,72342.8,-14.11,-45.41,-45.53,0,*6A
1513465569.5,39898,7.0,72340.5,-14.11,-45.41,-45.41,0,*66
1513465570.75,39899,7.0,72340.5,-14.09,-45.53,-45.61,0,*6F
1513465572.02,39900,7.0,72340.3,-14.09,-45.61,-45.73,0,*6C
1513465573.26,39901,7.0,72342.8,-14.09,-45.95,-45.95,0,*6E
1513465574.48,39902,7.0,72342.3,-14.11,-46.21,-46.21,0,*64
1513465575.75,39903,7.0,72342.5,-14.09,-46.27,-46.21,0,*6A
1513465577.0,39904,7.0,72336.8,-14.09,-46.01,-46.01,0,*6B
1513465578.29,39905,7.0,72342.8,-14.09,-45.73,-45.73,0,*6A
1513465579.53,39906,7.0,72344.0,-14.09,-45.95,-45.95,0,*69
1513465580.78,39907,7.0,72340.0,-14.09,-46.01,-46.01,0,*68
1513465582.0,39908,7.0,72340.0,-14.11,-45.95,-45.95,0,*6E
1513465583.24,39909,7.0,72338.5,-14.09,-45.41,-45.61,0,*64
1513465584.48,39910,7.0,72342.0,-14.09,-45.41,-45.61,0,*6C
1513465585.77,39911,7.0,72344.3,-14.09,-45.73,-45.81,0,*62
1513465587.03,39912,7.0,72342.5,-14.09,-45.95,-45.81,0,*69
1513465588.27,39913,7.0,72340.8,-14.09,-45.95,-45.95,0,*6D
1513465589.56,39914,7.0,72342.0,-14.09,-46.15,-46.01,0,*6F
1513465590.83,39915,7.0,72342.0,-14.09,-46.21,-46.15,0,*6C
1513465592.08,39916,7.0,72340.0,-14.09,-46.21,-46.01,0,*6A
1513465593.34,39917,7.0,72344.8,-14.11,-46.41,-46.41,0,*60
1513465594.61,39918,7.0,72342.5,-14.11,-46.49,-46.27,0,*67
1513465595.86,39919,7.0,72344.0,-14.11,-46.15,-46.01,0,*6B
1513465597.14,39920,7.0,72342.5,-14.09,-46.27,-46.01,0,*69
1513465598.45,39921,7.0,72336.3,-14.09,-46.27,-46.27,0,*6C
1513465599.71,39922,7.0,72340.8,-14.11,-46.41,-46.49,0,*6E
1513465601.01,39923,7.0,72344.3,-14.09,-46.49,-46.49,0,*6E
1513465602.28,39924,7.0,72340.5,-14.11,-46.49,-46.41,0,*68
1513465603.55,39925,7.0,72342.8,-14.11,-46.41,-46.49,0,*69
1513465604.8,39926,7.0,72342.5,-14.11,-46.15,-46.01,0,*67
1513465606.03,39927,7.0,72342.8,-14.11,-46.01,-46.01,0,*63
1513465607.28,39928,7.0,72340.3,-14.11,-46.01,-46.15,0,*69
1513465608.54,39929,7.0,72344.5,-14.11,-46.41,-46.27,0,*6D
1513465609.79,39930,7.0,72346.8,-14.11,-46.15,-45.95,0,*6E
1513465611.01,39931,7.0,72342.3,-14.11,-46.21,-46.01,0,*66
1513465612.23,39932,7.0,72344.3,-14.11,-46.21,-46.21,0,*67
1513465613.49,39933,7.0,72340.5,-14.11,-46.41,-46.49,0,*6E
1513465614.76,39934,7.0,72346.0,-14.11,-46.27,-46.41,0,*61
1513465616.0,39935,7.0,72344.3,-14.11,-45.81,-45.95,0,*65
1513465617.27,39936,7.0,72338.0,-14.13,-46.07,-46.01,0,*67
1513465618.52,39937,7.0,72340.0,-14.13,-46.35,-46.35,0,*60
1513465619.78,39938,7.0,72344.8,-14.11,-46.15,-46.01,0,*68
1513465621.0,39939,7.0,72346.5,-14.11,-45.53,-45.61,0,*6D
1513465622.21,39940,7.0,72344.0,-14.11,-45.33,-45.21,0,*61
1513465623.42,39941,7.0,72340.5,-14.11,-45.95,-45.95,0,*63
1513465624.64,39942,7.0,72340.8,-14.11,-45.95,-45.95,0,*60
1513465625.85,39943,7.0,72340.0,-14.11,-45.95,-45.95,0,*61
1513465627.11,39944,7.0,72342.8,-14.11,-45.81,-45.81,0,*66
1513465628.35,39945,7.0,72340.3,-14.11,-45.81,-45.95,0,*62
1513465629.56,39946,7.0,72340.8,-14.11,-45.95,-45.95,0,*64
1513465630.83,39947,7.0,72342.5,-14.11,-45.81,-45.81,0,*65
1513465632.07,39948,7.0,72342.5,-14.09,-45.53,-45.61,0,*62
1513465633.31,39949,7.0,72336.8,-14.09,-45.33,-45.41,0,*67
1513465634.56,39950,7.0,72340.0,-14.09,-45.53,-45.61,0,*6B
1513465635.81,39951,7.0,72340.5,-14.09,-45.53,-45.61,0,*6A
1513465637.02,39952,7.0,72342.8,-14.11,-45.33,-45.41,0,*64
1513465638.23,39953,7.0,72336.5,-14.11,-45.41,-45.53,0,*63
1513465639.48,39954,7.0,72338.3,-14.09,-45.53,-45.53,0,*6E
1513465640.75,39955,7.0,72336.8,-14.05,-45.27,-45.13,0,*64
1513465642.02,39956,7.0,72338.8,-14.05,-45.27,-45.13,0,*67
1513465643.29,39957,7.0,72340.5,-14.05,-45.33,-45.47,0,*62
1513465644.56,39958,7.0,72342.8,-14.05,-45.27,-45.33,0,*6B
1513465645.82,39959,7.0,72344.5,-14.05,-45.33,-45.47,0,*6C
1513465647.06,39960,7.0,72342.0,-14.05,-45.33,-45.33,0,*65
1513465648.32,39961,7.0,72342.3,-14.05,-45.47,-45.33,0,*67
1513465649.56,39962,7.0,72340.8,-14.05,-45.67,-45.67,0,*67
1513465650.8,39963,7.0,72340.0,-14.05,-45.53,-45.67,0,*61
1513465652.07,39964,7.0,72342.3,-14.05,-45.67,-45.73,0,*64
1513465653.33,39965,7.0,72342.8,-14.05,-45.87,-45.73,0,*6B
1513465654.57,39966,7.0,72342.0,-14.05,-45.87,-45.87,0,*63
1513465655.81,39967,7.0,72344.3,-14.05,-45.87,-45.87,0,*62
1513465657.1,39968,7.0,72344.0,-14.05,-45.73,-45.73,0,*6D
1513465658.33,39969,7.0,72342.8,-14.05,-45.87,-45.87,0,*6C
1513465659.64,39970,7.0,72342.8,-14.05,-46.15,-46.15,0,*64
1513465660.9,39971,7.0,72338.8,-14.05,-45.67,-45.73,0,*60
1513465662.17,39972,7.0,72340.3,-14.05,-45.67,-45.73,0,*63
1513465663.43,39973,7.0,72342.0,-14.05,-45.73,-45.87,0,*6C
1513465664.67,39974,7.0,72344.5,-14.05,-45.95,-45.95,0,*60
1513465665.97,39975,7.0,72342.0,-14.05,-46.15,-46.15,0,*61
1513465667.25,39976,7.0,72344.3,-14.05,-46.35,-46.15,0,*60
1513465668.52,39977,7.0,72346.8,-14.05,-46.21,-46.07,0,*67
1513465669.79,39978,7.0,72340.8,-14.05,-45.67,-45.73,0,*69
1513465671.03,39979,7.0,72342.8,-14.05,-45.95,-45.95,0,*6D
1513465672.3,39980,7.0,72346.5,-14.05,-46.07,-45.95,0,*63
1513465673.54,39981,7.0,72346.5,-14.05,-45.95,-45.95,0,*6A
1513465674.8,39982,7.0,72344.3,-14.05,-45.73,-45.67,0,*6C
1513465676.06,39983,7.0,72346.5,-14.05,-45.67,-45.73,0,*6D
1513465677.33,39984,7.0,72344.0,-14.05,-45.73,-45.53,0,*6D
1513465678.59,39985,7.0,72346.0,-14.05,-45.73,-45.87,0,*65
1513465679.83,39986,7.0,72346.0,-14.05,-45.87,-45.87,0,*6D
1513465681.07,39987,7.0,72346.3,-14.05,-45.87,-45.87,0,*6C
1513465682.35,39988,7.0,72346.3,-14.05,-45.73,-45.73,0,*63
1513465683.62,39989,7.0,72346.0,-14.05,-45.67,-45.73,0,*67
1513465684.83,39990,7.0,72350.0,-14.03,-45.95,-45.87,0,*6F
1513465686.11,39991,7.0,72344.0,-14.05,-45.73,-45.73,0,*6B
1513465687.34,39992,7.0,72346.8,-14.03,-45.87,-45.73,0,*65
1513465688.56,39993,7.0,72346.3,-14.03,-45.95,-45.95,0,*6F
1513465689.77,39994,7.0,72348.0,-14.03,-45.95,-45.95,0,*68
1513465691.0,39995,7.0,72348.3,-14.03,-45.73,-45.87,0,*62
1513465692.22,39996,7.0,72342.8,-14.03,-45.73,-45.67,0,*6F
1513465693.48,39997,7.0,72346.3,-14.03,-45.73,-45.73,0,*6B
1513465694.69,39998,7.0,72346.0,-14.03,-45.95,-45.87,0,*67
1513465695.9,39999,7.0,72344.8,-14.03,-45.95,-45.87,0,*66
1513465697.11,40000,7.0,72346.8,-14.03,-45.87,-45.95,0,*61
1513465698.32,40001,7.0,72342.5,-14.03,-45.87,-45.87,0,*63
1513465699.59,40002,7.0,72344.3,-14.01,-45.61,-45.81,0,*6C
1513465700.84,40003,7.0,72342.0,-14.01,-46.01,-46.01,0,*63
1513465702.08,40004,7.0,72342.0,-14.01,-46.01,-45.87,0,*69
1513465703.29,40005,7.0,72346.3,-14.03,-45.87,-45.95,0,*64
1513465704.54,40006,7.0,72346.0,-14.03,-45.95,-46.07,0,*6C
1513465705.75,40007,7.0,72344.0,-14.03,-45.95,-45.95,0,*65
1513465706.98,40008,7.0,72344.0,-14.01,-45.87,-45.87,0,*68
1513465708.26,40009,7.0,72346.5,-14.03,-46.15,-46.07,0,*68
1513465709.53,40010,7.0,72342.5,-14.01,-46.07,-45.87,0,*6A
1513465710.74,40011,7.0,72342.5,-14.03,-46.35,-46.21,0,*67